Year,Month,Day,Hour,Minute,Value (Times are PST for insolation in W/m^2)
2014,10,05,00,00,0.00
2014,10,05,00,01,0.00
2014,10,05,00,02,0.00
2014,10,05,00,03,0.00
2014,10,05,00,04,0.00
2014,10,05,00,05,0.00
2014,10,05,00,06,0.00
2014,10,05,00,07,0.00
2014,10,05,00,08,0.00
2014,10,05,00,09,0.00
2014,10,05,00,10,0.00
2014,10,05,00,11,0.00
2014,10,05,00,12,0.00
2014,10,05,00,13,0.00
2014,10,05,00,14,0.00
2014,10,05,00,15,0.00
2014,10,05,00,16,0.00
2014,10,05,00,17,0.00
2014,10,05,00,18,0.00
2014,10,05,00,19,0.00
2014,10,05,00,20,0.00
2014,10,05,00,21,0.00
2014,10,05,00,22,0.00
2014,10,05,00,23,0.00
2014,10,05,00,24,0.00
2014,10,05,00,25,0.00
2014,10,05,00,26,0.00
2014,10,05,00,27,0.00
2014,10,05,00,28,0.00
2014,10,05,00,29,0.00
2014,10,05,00,30,0.00
2014,10,05,00,31,0.00
2014,10,05,00,32,0.00
2014,10,05,00,33,0.00
2014,10,05,00,34,0.00
2014,10,05,00,35,0.00
2014,10,05,00,36,0.00
2014,10,05,00,37,0.00
2014,10,05,00,38,0.00
2014,10,05,00,39,0.00
2014,10,05,00,40,0.00
2014,10,05,00,41,0.00
2014,10,05,00,42,0.00
2014,10,05,00,43,0.00
2014,10,05,00,44,0.00
2014,10,05,00,45,0.00
2014,10,05,00,46,0.00
2014,10,05,00,47,0.00
2014,10,05,00,48,0.00
2014,10,05,00,49,0.00
2014,10,05,00,50,0.00
2014,10,05,00,51,0.00
2014,10,05,00,52,0.00
2014,10,05,00,53,0.00
2014,10,05,00,54,0.00
2014,10,05,00,55,0.00
2014,10,05,00,56,0.00
2014,10,05,00,57,0.00
2014,10,05,00,58,0.00
2014,10,05,00,59,0.00
2014,10,05,01,00,0.00
2014,10,05,01,01,0.00
2014,10,05,01,02,0.00
2014,10,05,01,03,0.00
2014,10,05,01,04,0.00
2014,10,05,01,05,0.00
2014,10,05,01,06,0.00
2014,10,05,01,07,0.00
2014,10,05,01,08,0.00
2014,10,05,01,09,0.00
2014,10,05,01,10,0.00
2014,10,05,01,11,0.00
2014,10,05,01,12,0.00
2014,10,05,01,13,0.00
2014,10,05,01,14,0.00
2014,10,05,01,15,0.00
2014,10,05,01,16,0.00
2014,10,05,01,17,0.00
2014,10,05,01,18,0.00
2014,10,05,01,19,0.00
2014,10,05,01,20,0.00
2014,10,05,01,21,0.00
2014,10,05,01,22,0.00
2014,10,05,01,23,0.00
2014,10,05,01,24,0.00
2014,10,05,01,25,0.00
2014,10,05,01,26,0.00
2014,10,05,01,27,0.00
2014,10,05,01,28,0.00
2014,10,05,01,29,0.00
2014,10,05,01,30,0.00
2014,10,05,01,31,0.00
2014,10,05,01,32,0.00
2014,10,05,01,33,0.00
2014,10,05,01,34,0.00
2014,10,05,01,35,0.00
2014,10,05,01,36,0.00
2014,10,05,01,37,0.00
2014,10,05,01,38,0.00
2014,10,05,01,39,0.00
2014,10,05,01,40,0.00
2014,10,05,01,41,0.00
2014,10,05,01,42,0.00
2014,10,05,01,43,0.00
2014,10,05,01,44,0.00
2014,10,05,01,45,0.00
2014,10,05,01,46,0.00
2014,10,05,01,47,0.00
2014,10,05,01,48,0.00
2014,10,05,01,49,0.00
2014,10,05,01,50,0.00
2014,10,05,01,51,0.00
2014,10,05,01,52,0.00
2014,10,05,01,53,0.00
2014,10,05,01,54,0.00
2014,10,05,01,55,0.00
2014,10,05,01,56,0.00
2014,10,05,01,57,0.00
2014,10,05,01,58,0.00
2014,10,05,01,59,0.00
2014,10,05,02,00,0.00
2014,10,05,02,01,0.00
2014,10,05,02,02,0.00
2014,10,05,02,03,0.00
2014,10,05,02,04,0.00
2014,10,05,02,05,0.00
2014,10,05,02,06,0.00
2014,10,05,02,07,0.00
2014,10,05,02,08,0.00
2014,10,05,02,09,0.00
2014,10,05,02,10,0.00
2014,10,05,02,11,0.00
2014,10,05,02,12,0.00
2014,10,05,02,13,0.00
2014,10,05,02,14,0.00
2014,10,05,02,15,0.00
2014,10,05,02,16,0.00
2014,10,05,02,17,0.00
2014,10,05,02,18,0.00
2014,10,05,02,19,0.00
2014,10,05,02,20,0.00
2014,10,05,02,21,0.00
2014,10,05,02,22,0.00
2014,10,05,02,23,0.00
2014,10,05,02,24,0.00
2014,10,05,02,25,0.00
2014,10,05,02,26,0.00
2014,10,05,02,27,0.00
2014,10,05,02,28,0.00
2014,10,05,02,29,0.00
2014,10,05,02,30,0.00
2014,10,05,02,31,0.00
2014,10,05,02,32,0.00
2014,10,05,02,33,0.00
2014,10,05,02,34,0.00
2014,10,05,02,35,0.00
2014,10,05,02,36,0.00
2014,10,05,02,37,0.00
2014,10,05,02,38,0.00
2014,10,05,02,39,0.00
2014,10,05,02,40,0.00
2014,10,05,02,41,0.00
2014,10,05,02,42,0.00
2014,10,05,02,43,0.00
2014,10,05,02,44,0.00
2014,10,05,02,45,0.00
2014,10,05,02,46,0.00
2014,10,05,02,47,0.00
2014,10,05,02,48,0.00
2014,10,05,02,49,0.00
2014,10,05,02,50,0.00
2014,10,05,02,51,0.00
2014,10,05,02,52,0.00
2014,10,05,02,53,0.00
2014,10,05,02,54,0.00
2014,10,05,02,55,0.00
2014,10,05,02,56,0.00
2014,10,05,02,57,0.00
2014,10,05,02,58,0.00
2014,10,05,02,59,0.00
2014,10,05,03,00,0.00
2014,10,05,03,01,0.00
2014,10,05,03,02,0.00
2014,10,05,03,03,0.00
2014,10,05,03,06,0.00
2014,10,05,03,07,0.00
2014,10,05,03,08,0.00
2014,10,05,03,09,0.00
2014,10,05,03,10,0.00
2014,10,05,03,11,0.00
2014,10,05,03,12,0.00
2014,10,05,03,13,0.00
2014,10,05,03,14,0.00
2014,10,05,03,15,0.00
2014,10,05,03,16,0.00
2014,10,05,03,17,0.00
2014,10,05,03,18,0.00
2014,10,05,03,19,0.00
2014,10,05,03,20,0.00
2014,10,05,03,21,0.00
2014,10,05,03,22,0.00
2014,10,05,03,23,0.00
2014,10,05,03,24,0.00
2014,10,05,03,25,0.00
2014,10,05,03,26,0.00
2014,10,05,03,27,0.00
2014,10,05,03,28,0.00
2014,10,05,03,29,0.00
2014,10,05,03,30,0.00
2014,10,05,03,31,0.00
2014,10,05,03,32,0.00
2014,10,05,03,33,0.00
2014,10,05,03,34,0.00
2014,10,05,03,35,0.00
2014,10,05,03,36,0.00
2014,10,05,03,37,0.00
2014,10,05,03,38,0.00
2014,10,05,03,39,0.00
2014,10,05,03,40,0.00
2014,10,05,03,41,0.00
2014,10,05,03,42,0.00
2014,10,05,03,43,0.00
2014,10,05,03,44,0.00
2014,10,05,03,45,0.00
2014,10,05,03,46,0.00
2014,10,05,03,47,0.00
2014,10,05,03,48,0.00
2014,10,05,03,49,0.00
2014,10,05,03,50,0.00
2014,10,05,03,51,0.00
2014,10,05,03,52,0.00
2014,10,05,03,53,0.00
2014,10,05,03,54,0.00
2014,10,05,03,55,0.00
2014,10,05,03,56,0.00
2014,10,05,03,57,0.00
2014,10,05,03,58,0.00
2014,10,05,03,59,0.00
2014,10,05,04,00,0.00
2014,10,05,04,01,0.00
2014,10,05,04,02,0.00
2014,10,05,04,03,0.00
2014,10,05,04,04,0.00
2014,10,05,04,05,0.00
2014,10,05,04,06,0.00
2014,10,05,04,07,0.00
2014,10,05,04,08,0.00
2014,10,05,04,09,0.00
2014,10,05,04,10,0.00
2014,10,05,04,11,0.00
2014,10,05,04,12,0.00
2014,10,05,04,13,0.00
2014,10,05,04,14,0.00
2014,10,05,04,15,0.00
2014,10,05,04,16,0.00
2014,10,05,04,17,0.00
2014,10,05,04,18,0.00
2014,10,05,04,19,0.00
2014,10,05,04,20,0.00
2014,10,05,04,21,0.00
2014,10,05,04,22,0.00
2014,10,05,04,23,0.00
2014,10,05,04,24,0.00
2014,10,05,04,25,0.00
2014,10,05,04,26,0.00
2014,10,05,04,27,0.00
2014,10,05,04,28,0.00
2014,10,05,04,29,0.00
2014,10,05,04,30,0.00
2014,10,05,04,31,0.00
2014,10,05,04,32,0.00
2014,10,05,04,33,0.00
2014,10,05,04,34,0.00
2014,10,05,04,35,0.00
2014,10,05,04,36,0.00
2014,10,05,04,37,0.00
2014,10,05,04,38,0.00
2014,10,05,04,39,0.00
2014,10,05,04,40,0.00
2014,10,05,04,41,0.00
2014,10,05,04,42,0.00
2014,10,05,04,43,0.00
2014,10,05,04,44,0.00
2014,10,05,04,45,0.00
2014,10,05,04,46,0.00
2014,10,05,04,47,0.00
2014,10,05,04,48,0.00
2014,10,05,04,49,0.00
2014,10,05,04,50,0.00
2014,10,05,04,51,0.00
2014,10,05,04,52,0.00
2014,10,05,04,53,0.00
2014,10,05,04,54,0.00
2014,10,05,04,55,0.00
2014,10,05,04,56,0.00
2014,10,05,04,57,0.00
2014,10,05,04,58,0.00
2014,10,05,04,59,0.00
2014,10,05,05,00,0.00
2014,10,05,05,01,0.00
2014,10,05,05,02,0.00
2014,10,05,05,03,0.00
2014,10,05,05,04,0.00
2014,10,05,05,05,0.00
2014,10,05,05,06,0.00
2014,10,05,05,07,0.00
2014,10,05,05,08,0.00
2014,10,05,05,09,0.00
2014,10,05,05,10,0.00
2014,10,05,05,11,0.00
2014,10,05,05,12,0.00
2014,10,05,05,13,0.00
2014,10,05,05,14,0.00
2014,10,05,05,15,0.00
2014,10,05,05,16,0.00
2014,10,05,05,17,0.00
2014,10,05,05,18,0.00
2014,10,05,05,19,0.00
2014,10,05,05,20,0.00
2014,10,05,05,21,0.00
2014,10,05,05,22,0.00
2014,10,05,05,23,0.00
2014,10,05,05,24,0.00
2014,10,05,05,25,0.00
2014,10,05,05,26,0.00
2014,10,05,05,27,0.00
2014,10,05,05,28,0.00
2014,10,05,05,29,0.00
2014,10,05,05,30,0.00
2014,10,05,05,31,0.00
2014,10,05,05,32,0.00
2014,10,05,05,33,0.00
2014,10,05,05,34,0.00
2014,10,05,05,35,0.00
2014,10,05,05,36,0.00
2014,10,05,05,37,0.00
2014,10,05,05,38,0.00
2014,10,05,05,39,0.00
2014,10,05,05,40,0.00
2014,10,05,05,41,0.00
2014,10,05,05,42,0.00
2014,10,05,05,43,0.00
2014,10,05,05,44,0.00
2014,10,05,05,45,0.00
2014,10,05,05,46,0.00
2014,10,05,05,47,0.00
2014,10,05,05,48,0.00
2014,10,05,05,49,0.00
2014,10,05,05,50,0.00
2014,10,05,05,51,0.00
2014,10,05,05,52,0.00
2014,10,05,05,53,0.00
2014,10,05,05,54,0.00
2014,10,05,05,55,0.00
2014,10,05,05,56,0.00
2014,10,05,05,57,0.00
2014,10,05,05,58,0.00
2014,10,05,05,59,0.00
2014,10,05,06,00,0.00
2014,10,05,06,01,0.00
2014,10,05,06,02,0.00
2014,10,05,06,03,0.00
2014,10,05,06,04,0.00
2014,10,05,06,05,0.00
2014,10,05,06,06,0.00
2014,10,05,06,07,0.00
2014,10,05,06,08,0.00
2014,10,05,06,09,0.00
2014,10,05,06,10,0.00
2014,10,05,06,11,0.00
2014,10,05,06,12,0.00
2014,10,05,06,13,0.00
2014,10,05,06,14,0.00
2014,10,05,06,15,0.00
2014,10,05,06,16,0.00
2014,10,05,06,17,0.00
2014,10,05,06,18,0.00
2014,10,05,06,19,0.00
2014,10,05,06,20,0.00
2014,10,05,06,21,0.00
2014,10,05,06,22,0.00
2014,10,05,06,23,0.00
2014,10,05,06,24,0.00
2014,10,05,06,25,0.00
2014,10,05,06,26,0.00
2014,10,05,06,27,0.00
2014,10,05,06,28,0.00
2014,10,05,06,29,0.00
2014,10,05,06,30,0.00
2014,10,05,06,31,0.00
2014,10,05,06,32,0.00
2014,10,05,06,33,0.00
2014,10,05,06,34,0.00
2014,10,05,06,35,0.00
2014,10,05,06,36,0.00
2014,10,05,06,37,0.00
2014,10,05,06,38,0.00
2014,10,05,06,39,0.00
2014,10,05,06,40,0.00
2014,10,05,06,41,0.00
2014,10,05,06,42,0.00
2014,10,05,06,43,0.00
2014,10,05,06,44,0.00
2014,10,05,06,45,0.00
2014,10,05,06,46,0.00
2014,10,05,06,47,0.00
2014,10,05,06,48,0.00
2014,10,05,06,49,0.00
2014,10,05,06,50,0.00
2014,10,05,06,51,0.00
2014,10,05,06,52,0.00
2014,10,05,06,53,0.00
2014,10,05,06,54,0.00
2014,10,05,06,55,0.00
2014,10,05,06,56,0.00
2014,10,05,06,57,0.00
2014,10,05,06,58,0.00
2014,10,05,06,59,0.00
2014,10,05,07,00,0.00
2014,10,05,07,01,0.00
2014,10,05,07,02,0.00
2014,10,05,07,03,0.00
2014,10,05,07,04,0.00
2014,10,05,07,05,0.00
2014,10,05,07,06,0.00
2014,10,05,07,07,0.00
2014,10,05,07,08,0.00
2014,10,05,07,09,0.00
2014,10,05,07,10,0.00
2014,10,05,07,11,0.00
2014,10,05,07,12,0.00
2014,10,05,07,13,0.00
2014,10,05,07,14,0.00
2014,10,05,07,15,0.00
2014,10,05,07,16,0.00
2014,10,05,07,17,0.00
2014,10,05,07,18,0.00
2014,10,05,07,19,0.00
2014,10,05,07,20,0.00
2014,10,05,07,21,0.00
2014,10,05,07,22,0.00
2014,10,05,07,23,0.00
2014,10,05,07,24,0.00
2014,10,05,07,25,0.20
2014,10,05,07,26,5.00
2014,10,05,07,27,5.00
2014,10,05,07,28,5.40
2014,10,05,07,29,7.00
2014,10,05,07,30,7.00
2014,10,05,07,31,7.00
2014,10,05,07,32,7.70
2014,10,05,07,33,9.00
2014,10,05,07,34,9.90
2014,10,05,07,35,11.00
2014,10,05,07,36,11.00
2014,10,05,07,37,11.00
2014,10,05,07,38,11.60
2014,10,05,07,39,13.30
2014,10,05,07,40,15.40
2014,10,05,07,41,16.00
2014,10,05,07,42,16.00
2014,10,05,07,43,17.60
2014,10,05,07,44,18.00
2014,10,05,07,45,18.90
2014,10,05,07,46,19.00
2014,10,05,07,47,20.90
2014,10,05,07,48,19.00
2014,10,05,07,49,18.00
2014,10,05,07,50,17.70
2014,10,05,07,51,16.40
2014,10,05,07,52,18.00
2014,10,05,07,53,18.80
2014,10,05,07,54,21.60
2014,10,05,07,55,23.80
2014,10,05,07,56,25.00
2014,10,05,07,57,25.50
2014,10,05,07,58,26.00
2014,10,05,07,59,26.00
2014,10,05,08,00,26.00
2014,10,05,08,01,26.00
2014,10,05,08,02,27.30
2014,10,05,08,03,29.40
2014,10,05,08,04,31.50
2014,10,05,08,05,32.80
2014,10,05,08,06,33.00
2014,10,05,08,07,30.50
2014,10,05,08,08,28.20
2014,10,05,08,09,28.00
2014,10,05,08,10,28.10
2014,10,05,08,11,30.00
2014,10,05,08,12,30.30
2014,10,05,08,13,33.00
2014,10,05,08,14,33.00
2014,10,05,08,15,33.80
2014,10,05,08,16,37.60
2014,10,05,08,17,40.00
2014,10,05,08,18,43.50
2014,10,05,08,19,47.20
2014,10,05,08,20,49.00
2014,10,05,08,21,49.00
2014,10,05,08,22,49.00
2014,10,05,08,23,58.30
2014,10,05,08,24,66.10
2014,10,05,08,25,67.00
2014,10,05,08,26,68.40
2014,10,05,08,27,69.00
2014,10,05,08,28,69.80
2014,10,05,08,29,70.00
2014,10,05,08,30,71.70
2014,10,05,08,31,73.70
2014,10,05,08,32,75.90
2014,10,05,08,33,76.30
2014,10,05,08,34,83.20
2014,10,05,08,35,86.20
2014,10,05,08,36,87.40
2014,10,05,08,37,83.40
2014,10,05,08,38,80.00
2014,10,05,08,39,76.70
2014,10,05,08,40,76.00
2014,10,05,08,41,76.00
2014,10,05,08,42,76.00
2014,10,05,08,43,76.00
2014,10,05,08,44,76.00
2014,10,05,08,45,76.50
2014,10,05,08,46,77.00
2014,10,05,08,47,78.30
2014,10,05,08,48,80.30
2014,10,05,08,49,82.40
2014,10,05,08,50,83.70
2014,10,05,08,51,85.50
2014,10,05,08,52,87.60
2014,10,05,08,53,90.60
2014,10,05,08,54,94.60
2014,10,05,08,55,96.90
2014,10,05,08,56,98.00
2014,10,05,08,57,96.80
2014,10,05,08,58,92.80
2014,10,05,08,59,91.00
2014,10,05,09,00,91.40
2014,10,05,09,01,94.10
2014,10,05,09,02,99.10
2014,10,05,09,03,102.70
2014,10,05,09,04,104.00
2014,10,05,09,05,104.00
2014,10,05,09,06,104.40
2014,10,05,09,07,107.00
2014,10,05,09,08,111.60
2014,10,05,09,09,114.00
2014,10,05,09,10,120.60
2014,10,05,09,11,130.70
2014,10,05,09,12,138.60
2014,10,05,09,13,155.20
2014,10,05,09,14,162.40
2014,10,05,09,15,155.00
2014,10,05,09,16,151.30
2014,10,05,09,17,151.00
2014,10,05,09,18,151.00
2014,10,05,09,19,151.00
2014,10,05,09,20,151.10
2014,10,05,09,21,153.30
2014,10,05,09,22,156.60
2014,10,05,09,23,161.10
2014,10,05,09,24,168.00
2014,10,05,09,25,174.70
2014,10,05,09,26,182.30
2014,10,05,09,27,185.40
2014,10,05,09,28,186.80
2014,10,05,09,29,187.10
2014,10,05,09,30,184.60
2014,10,05,09,31,180.80
2014,10,05,09,32,178.40
2014,10,05,09,33,178.00
2014,10,05,09,34,178.00
2014,10,05,09,35,178.70
2014,10,05,09,36,180.50
2014,10,05,09,37,181.00
2014,10,05,09,38,181.00
2014,10,05,09,39,182.70
2014,10,05,09,40,184.70
2014,10,05,09,41,189.80
2014,10,05,09,42,190.00
2014,10,05,09,43,182.60
2014,10,05,09,44,175.60
2014,10,05,09,45,171.90
2014,10,05,09,46,171.00
2014,10,05,09,47,170.60
2014,10,05,09,48,169.00
2014,10,05,09,49,169.00
2014,10,05,09,50,169.00
2014,10,05,09,51,172.50
2014,10,05,09,52,179.90
2014,10,05,09,53,182.00
2014,10,05,09,54,185.80
2014,10,05,09,55,190.80
2014,10,05,09,56,198.40
2014,10,05,09,57,207.90
2014,10,05,09,58,211.00
2014,10,05,09,59,211.00
2014,10,05,10,00,211.00
2014,10,05,10,01,202.10
2014,10,05,10,02,203.40
2014,10,05,10,03,210.30
2014,10,05,10,04,202.50
2014,10,05,10,05,195.40
2014,10,05,10,06,169.50
2014,10,05,10,07,140.10
2014,10,05,10,08,125.10
2014,10,05,10,09,140.60
2014,10,05,10,10,156.50
2014,10,05,10,11,167.20
2014,10,05,10,12,183.00
2014,10,05,10,13,184.10
2014,10,05,10,14,183.40
2014,10,05,10,15,171.40
2014,10,05,10,16,178.60
2014,10,05,10,17,187.50
2014,10,05,10,18,161.50
2014,10,05,10,19,164.80
2014,10,05,10,20,182.00
2014,10,05,10,21,188.80
2014,10,05,10,22,201.80
2014,10,05,10,23,199.20
2014,10,05,10,24,189.80
2014,10,05,10,25,188.00
2014,10,05,10,26,188.00
2014,10,05,10,27,161.40
2014,10,05,10,28,181.90
2014,10,05,10,29,192.00
2014,10,05,10,30,171.90
2014,10,05,10,31,171.10
2014,10,05,10,32,176.70
2014,10,05,10,33,205.20
2014,10,05,10,34,219.40
2014,10,05,10,35,222.40
2014,10,05,10,36,224.90
2014,10,05,10,37,233.50
2014,10,05,10,38,236.00
2014,10,05,10,39,236.00
2014,10,05,10,40,232.30
2014,10,05,10,41,224.80
2014,10,05,10,42,220.40
2014,10,05,10,43,224.30
2014,10,05,10,44,224.30
2014,10,05,10,45,216.60
2014,10,05,10,46,210.10
2014,10,05,10,47,209.00
2014,10,05,10,48,222.50
2014,10,05,10,49,215.60
2014,10,05,10,50,204.50
2014,10,05,10,51,234.00
2014,10,05,10,52,220.00
2014,10,05,10,53,219.80
2014,10,05,10,54,217.20
2014,10,05,10,55,212.40
2014,10,05,10,56,208.00
2014,10,05,10,57,203.00
2014,10,05,10,58,199.10
2014,10,05,10,59,198.10
2014,10,05,11,00,205.20
2014,10,05,11,01,216.10
2014,10,05,11,02,217.20
2014,10,05,11,03,218.50
2014,10,05,11,04,223.00
2014,10,05,11,05,230.80
2014,10,05,11,06,239.20
2014,10,05,11,07,252.60
2014,10,05,11,08,278.30
2014,10,05,11,09,289.20
2014,10,05,11,10,322.00
2014,10,05,11,11,382.50
2014,10,05,11,12,308.70
2014,10,05,11,13,257.10
2014,10,05,11,14,233.10
2014,10,05,11,15,230.40
2014,10,05,11,16,204.50
2014,10,05,11,17,231.90
2014,10,05,11,18,268.80
2014,10,05,11,19,303.40
2014,10,05,11,20,291.20
2014,10,05,11,21,266.00
2014,10,05,11,22,291.30
2014,10,05,11,23,316.00
2014,10,05,11,24,283.60
2014,10,05,11,25,239.00
2014,10,05,11,26,240.10
2014,10,05,11,27,262.00
2014,10,05,11,28,283.00
2014,10,05,11,29,284.30
2014,10,05,11,30,282.30
2014,10,05,11,31,295.00
2014,10,05,11,32,306.20
2014,10,05,11,33,334.40
2014,10,05,11,34,341.00
2014,10,05,11,35,460.90
2014,10,05,11,36,475.00
2014,10,05,11,37,475.00
2014,10,05,11,38,468.40
2014,10,05,11,39,346.70
2014,10,05,11,40,419.90
2014,10,05,11,41,436.00
2014,10,05,11,42,436.00
2014,10,05,11,43,424.50
2014,10,05,11,44,395.40
2014,10,05,11,45,408.00
2014,10,05,11,46,441.50
2014,10,05,11,47,499.00
2014,10,05,11,48,554.30
2014,10,05,11,49,625.50
2014,10,05,11,50,611.60
2014,10,05,11,51,584.50
2014,10,05,11,52,533.60
2014,10,05,11,53,506.00
2014,10,05,11,54,506.00
2014,10,05,11,55,601.20
2014,10,05,11,56,631.00
2014,10,05,11,57,605.40
2014,10,05,11,58,596.50
2014,10,05,11,59,521.30
2014,10,05,12,00,504.50
2014,10,05,12,01,480.00
2014,10,05,12,02,480.00
2014,10,05,12,03,480.00
2014,10,05,12,04,506.80
2014,10,05,12,05,647.20
2014,10,05,12,06,631.50
2014,10,05,12,07,614.10
2014,10,05,12,08,590.60
2014,10,05,12,09,579.80
2014,10,05,12,10,592.00
2014,10,05,12,11,550.30
2014,10,05,12,12,503.00
2014,10,05,12,13,503.00
2014,10,05,12,14,528.80
2014,10,05,12,15,554.20
2014,10,05,12,16,557.00
2014,10,05,12,17,557.00
2014,10,05,12,18,557.00
2014,10,05,12,19,557.00
2014,10,05,12,20,557.00
2014,10,05,12,21,506.00
2014,10,05,12,22,497.00
2014,10,05,12,23,340.20
2014,10,05,12,24,403.00
2014,10,05,12,25,403.00
2014,10,05,12,26,403.00
2014,10,05,12,27,414.10
2014,10,05,12,28,473.00
2014,10,05,12,29,473.00
2014,10,05,12,30,473.00
2014,10,05,12,31,511.10
2014,10,05,12,32,583.10
2014,10,05,12,33,582.10
2014,10,05,12,34,569.50
2014,10,05,12,35,568.00
2014,10,05,12,36,577.00
2014,10,05,12,37,577.00
2014,10,05,12,38,578.90
2014,10,05,12,39,577.90
2014,10,05,12,40,580.50
2014,10,05,12,41,584.20
2014,10,05,12,42,588.00
2014,10,05,12,43,548.60
2014,10,05,12,44,541.00
2014,10,05,12,45,541.00
2014,10,05,12,46,265.50
2014,10,05,12,47,285.00
2014,10,05,12,48,307.00
2014,10,05,12,49,364.20
2014,10,05,12,50,352.80
2014,10,05,12,51,276.20
2014,10,05,12,52,269.00
2014,10,05,12,53,273.20
2014,10,05,12,54,304.80
2014,10,05,12,55,352.00
2014,10,05,12,56,424.40
2014,10,05,12,57,503.10
2014,10,05,12,58,499.00
2014,10,05,12,59,541.00
2014,10,05,13,00,548.00
2014,10,05,13,01,555.70
2014,10,05,13,02,556.40
2014,10,05,13,03,552.90
2014,10,05,13,04,552.00
2014,10,05,13,05,557.60
2014,10,05,13,06,563.20
2014,10,05,13,07,564.00
2014,10,05,13,08,564.00
2014,10,05,13,09,519.20
2014,10,05,13,10,523.90
2014,10,05,13,11,484.40
2014,10,05,13,12,528.80
2014,10,05,13,13,527.00
2014,10,05,13,14,527.00
2014,10,05,13,15,527.00
2014,10,05,13,16,527.00
2014,10,05,13,17,527.70
2014,10,05,13,18,531.00
2014,10,05,13,19,536.50
2014,10,05,13,20,541.30
2014,10,05,13,21,541.50
2014,10,05,13,22,545.50
2014,10,05,13,23,552.90
2014,10,05,13,24,554.40
2014,10,05,13,25,550.10
2014,10,05,13,26,548.00
2014,10,05,13,27,549.50
2014,10,05,13,28,550.00
2014,10,05,13,29,550.00
2014,10,05,13,30,550.00
2014,10,05,13,31,548.20
2014,10,05,13,32,548.00
2014,10,05,13,33,547.80
2014,10,05,13,34,545.00
2014,10,05,13,35,545.00
2014,10,05,13,36,545.00
2014,10,05,13,37,545.60
2014,10,05,13,38,548.50
2014,10,05,13,39,550.00
2014,10,05,13,40,549.30
2014,10,05,13,41,548.00
2014,10,05,13,42,546.70
2014,10,05,13,43,545.90
2014,10,05,13,44,547.00
2014,10,05,13,45,545.90
2014,10,05,13,46,545.00
2014,10,05,13,47,545.00
2014,10,05,13,48,543.70
2014,10,05,13,49,543.00
2014,10,05,13,50,539.30
2014,10,05,13,51,540.20
2014,10,05,13,52,540.20
2014,10,05,13,53,538.30
2014,10,05,13,54,538.00
2014,10,05,13,55,538.00
2014,10,05,13,56,526.00
2014,10,05,13,57,531.30
2014,10,05,13,58,533.20
2014,10,05,13,59,526.80
2014,10,05,14,00,530.60
2014,10,05,14,01,530.80
2014,10,05,14,02,536.00
2014,10,05,14,03,536.00
2014,10,05,14,04,536.00
2014,10,05,14,05,521.20
2014,10,05,14,06,504.00
2014,10,05,14,07,500.00
2014,10,05,14,08,507.60
2014,10,05,14,09,523.20
2014,10,05,14,10,532.40
2014,10,05,14,11,532.20
2014,10,05,14,12,531.80
2014,10,05,14,13,502.90
2014,10,05,14,14,505.00
2014,10,05,14,15,504.40
2014,10,05,14,16,522.50
2014,10,05,14,17,526.00
2014,10,05,14,18,526.00
2014,10,05,14,19,525.70
2014,10,05,14,20,519.30
2014,10,05,14,21,523.50
2014,10,05,14,22,519.00
2014,10,05,14,23,518.20
2014,10,05,14,24,516.00
2014,10,05,14,25,517.20
2014,10,05,14,26,482.20
2014,10,05,14,27,414.70
2014,10,05,14,28,422.60
2014,10,05,14,29,467.60
2014,10,05,14,30,475.00
2014,10,05,14,31,469.00
2014,10,05,14,32,420.00
2014,10,05,14,33,348.40
2014,10,05,14,34,368.80
2014,10,05,14,35,397.20
2014,10,05,14,36,384.80
2014,10,05,14,37,402.10
2014,10,05,14,38,419.20
2014,10,05,14,39,429.60
2014,10,05,14,40,450.00
2014,10,05,14,41,483.40
2014,10,05,14,42,496.00
2014,10,05,14,43,464.00
2014,10,05,14,44,465.70
2014,10,05,14,45,481.00
2014,10,05,14,46,482.40
2014,10,05,14,47,446.50
2014,10,05,14,48,405.60
2014,10,05,14,49,420.00
2014,10,05,14,50,374.90
2014,10,05,14,51,369.00
2014,10,05,14,52,369.00
2014,10,05,14,53,369.00
2014,10,05,14,54,350.70
2014,10,05,14,55,332.80
2014,10,05,14,56,332.00
2014,10,05,14,57,410.90
2014,10,05,14,58,448.60
2014,10,05,14,59,426.20
2014,10,05,15,00,382.40
2014,10,05,15,01,378.90
2014,10,05,15,02,424.20
2014,10,05,15,03,400.50
2014,10,05,15,04,423.60
2014,10,05,15,05,331.00
2014,10,05,15,06,311.40
2014,10,05,15,07,320.30
2014,10,05,15,08,342.80
2014,10,05,15,09,349.60
2014,10,05,15,10,341.50
2014,10,05,15,11,370.80
2014,10,05,15,12,398.20
2014,10,05,15,13,409.40
2014,10,05,15,14,422.90
2014,10,05,15,15,416.90
2014,10,05,15,16,406.30
2014,10,05,15,17,395.10
2014,10,05,15,18,395.90
2014,10,05,15,19,399.00
2014,10,05,15,20,387.00
2014,10,05,15,21,374.00
2014,10,05,15,22,381.50
2014,10,05,15,23,387.40
2014,10,05,15,24,389.60
2014,10,05,15,25,313.70
2014,10,05,15,26,280.40
2014,10,05,15,27,262.80
2014,10,05,15,28,262.00
2014,10,05,15,29,285.00
2014,10,05,15,30,285.30
2014,10,05,15,31,287.80
2014,10,05,15,32,287.00
2014,10,05,15,33,284.80
2014,10,05,15,34,278.00
2014,10,05,15,35,290.00
2014,10,05,15,36,321.60
2014,10,05,15,37,335.30
2014,10,05,15,38,339.70
2014,10,05,15,39,334.00
2014,10,05,15,40,330.00
2014,10,05,15,41,314.90
2014,10,05,15,42,304.00
2014,10,05,15,43,304.00
2014,10,05,15,44,328.50
2014,10,05,15,45,327.10
2014,10,05,15,46,322.00
2014,10,05,15,47,310.80
2014,10,05,15,48,308.00
2014,10,05,15,49,342.20
2014,10,05,15,50,384.80
2014,10,05,15,51,403.10
2014,10,05,15,52,396.90
2014,10,05,15,53,393.10
2014,10,05,15,54,385.70
2014,10,05,15,55,391.20
2014,10,05,15,56,387.20
2014,10,05,15,57,383.20
2014,10,05,15,58,376.40
2014,10,05,15,59,366.70
2014,10,05,16,00,361.40
2014,10,05,16,01,370.20
2014,10,05,16,02,369.00
2014,10,05,16,03,360.20
2014,10,05,16,04,344.80
2014,10,05,16,05,351.20
2014,10,05,16,06,361.30
2014,10,05,16,07,336.10
2014,10,05,16,08,325.00
2014,10,05,16,09,318.20
2014,10,05,16,10,310.40
2014,10,05,16,11,277.30
2014,10,05,16,12,286.30
2014,10,05,16,13,272.80
2014,10,05,16,14,265.00
2014,10,05,16,15,266.60
2014,10,05,16,16,260.00
2014,10,05,16,17,259.20
2014,10,05,16,18,253.90
2014,10,05,16,19,251.00
2014,10,05,16,20,266.90
2014,10,05,16,21,283.00
2014,10,05,16,22,285.50
2014,10,05,16,23,290.00
2014,10,05,16,24,284.90
2014,10,05,16,25,278.50
2014,10,05,16,26,269.60
2014,10,05,16,27,262.00
2014,10,05,16,28,275.80
2014,10,05,16,29,285.00
2014,10,05,16,30,280.80
2014,10,05,16,31,279.00
2014,10,05,16,32,279.00
2014,10,05,16,33,269.40
2014,10,05,16,34,284.00
2014,10,05,16,35,293.30
2014,10,05,16,36,294.90
2014,10,05,16,37,278.00
2014,10,05,16,38,269.20
2014,10,05,16,39,276.50
2014,10,05,16,40,296.40
2014,10,05,16,41,280.40
2014,10,05,16,42,278.00
2014,10,05,16,43,274.10
2014,10,05,16,44,278.60
2014,10,05,16,45,308.00
2014,10,05,16,46,285.10
2014,10,05,16,47,258.90
2014,10,05,16,48,275.00
2014,10,05,16,49,285.50
2014,10,05,16,50,271.70
2014,10,05,16,51,251.80
2014,10,05,16,52,220.10
2014,10,05,16,53,204.00
2014,10,05,16,54,115.60
2014,10,05,16,55,84.00
2014,10,05,16,56,84.00
2014,10,05,16,57,84.00
2014,10,05,16,58,84.00
2014,10,05,16,59,147.60
2014,10,05,17,00,176.00
2014,10,05,17,01,89.80
2014,10,05,17,02,69.30
2014,10,05,17,03,72.00
2014,10,05,17,04,72.40
2014,10,05,17,05,74.00
2014,10,05,17,06,74.00
2014,10,05,17,07,95.50
2014,10,05,17,08,144.10
2014,10,05,17,09,154.00
2014,10,05,17,10,163.00
2014,10,05,17,11,155.50
2014,10,05,17,12,141.90
2014,10,05,17,13,123.10
2014,10,05,17,14,107.60
2014,10,05,17,15,71.50
2014,10,05,17,16,51.90
2014,10,05,17,17,51.00
2014,10,05,17,18,51.00
2014,10,05,17,19,52.60
2014,10,05,17,20,57.20